Year,Month,Day,Hour,Minute,Value (Times are PST for temperature in C)
2012,06,24,00,00,10.30
2012,06,24,00,01,10.40
2012,06,24,00,02,10.40
2012,06,24,00,03,10.40
2012,06,24,00,04,10.40
2012,06,24,00,05,10.40
2012,06,24,00,06,10.40
2012,06,24,00,07,10.40
2012,06,24,00,08,10.30
2012,06,24,00,09,10.30
2012,06,24,00,10,10.20
2012,06,24,00,11,10.20
2012,06,24,00,12,10.20
2012,06,24,00,13,10.10
2012,06,24,00,14,10.10
2012,06,24,00,15,10.00
2012,06,24,00,16,10.00
2012,06,24,00,17,10.00
2012,06,24,00,18,9.90
2012,06,24,00,19,9.90
2012,06,24,00,20,9.80
2012,06,24,00,21,9.80
2012,06,24,00,22,9.80
2012,06,24,00,23,9.80
2012,06,24,00,24,9.80
2012,06,24,00,25,9.80
2012,06,24,00,26,9.80
2012,06,24,00,27,9.80
2012,06,24,00,28,9.80
2012,06,24,00,29,9.70
2012,06,24,00,30,9.70
2012,06,24,00,31,9.70
2012,06,24,00,32,9.70
2012,06,24,00,33,9.70
2012,06,24,00,34,9.70
2012,06,24,00,35,9.70
2012,06,24,00,36,9.70
2012,06,24,00,37,9.70
2012,06,24,00,38,9.60
2012,06,24,00,39,9.60
2012,06,24,00,40,9.60
2012,06,24,00,41,9.60
2012,06,24,00,42,9.60
2012,06,24,00,43,9.60
2012,06,24,00,44,9.60
2012,06,24,00,45,9.60
2012,06,24,00,46,9.50
2012,06,24,00,47,9.50
2012,06,24,00,48,9.50
2012,06,24,00,49,9.40
2012,06,24,00,50,9.40
2012,06,24,00,51,9.40
2012,06,24,00,52,9.40
2012,06,24,00,53,9.30
2012,06,24,00,54,9.30
2012,06,24,00,55,9.30
2012,06,24,00,56,9.30
2012,06,24,00,57,9.30
2012,06,24,00,58,9.30
2012,06,24,00,59,9.30
2012,06,24,01,00,9.30
2012,06,24,01,01,9.30
2012,06,24,01,02,9.30
2012,06,24,01,03,9.30
2012,06,24,01,04,9.30
2012,06,24,01,05,9.30
2012,06,24,01,06,9.30
2012,06,24,01,07,9.30
2012,06,24,01,08,9.30
2012,06,24,01,09,9.30
2012,06,24,01,10,9.40
2012,06,24,01,11,9.40
2012,06,24,01,12,9.40
2012,06,24,01,13,9.40
2012,06,24,01,14,9.40
2012,06,24,01,15,9.40
2012,06,24,01,16,9.40
2012,06,24,01,17,9.30
2012,06,24,01,18,9.30
2012,06,24,01,19,9.30
2012,06,24,01,20,9.20
2012,06,24,01,21,9.20
2012,06,24,01,22,9.20
2012,06,24,01,23,9.10
2012,06,24,01,24,9.10
2012,06,24,01,25,9.00
2012,06,24,01,26,9.00
2012,06,24,01,27,8.90
2012,06,24,01,28,8.90
2012,06,24,01,29,8.80
2012,06,24,01,30,8.80
2012,06,24,01,31,8.80
2012,06,24,01,32,8.70
2012,06,24,01,33,8.70
2012,06,24,01,34,8.70
2012,06,24,01,35,8.70
2012,06,24,01,36,8.70
2012,06,24,01,37,8.70
2012,06,24,01,38,8.70
2012,06,24,01,39,8.70
2012,06,24,01,40,8.70
2012,06,24,01,41,8.60
2012,06,24,01,42,8.60
2012,06,24,01,43,8.70
2012,06,24,01,44,8.70
2012,06,24,01,45,8.70
2012,06,24,01,46,8.70
2012,06,24,01,47,8.70
2012,06,24,01,48,8.70
2012,06,24,01,49,8.80
2012,06,24,01,50,8.80
2012,06,24,01,51,8.80
2012,06,24,01,52,8.80
2012,06,24,01,53,8.90
2012,06,24,01,54,8.90
2012,06,24,01,55,8.90
2012,06,24,01,56,8.90
2012,06,24,01,57,9.00
2012,06,24,01,58,9.00
2012,06,24,01,59,9.10
2012,06,24,02,00,9.10
2012,06,24,02,01,9.10
2012,06,24,02,02,9.10
2012,06,24,02,03,9.20
2012,06,24,02,04,9.20
2012,06,24,02,05,9.20
2012,06,24,02,06,9.30
2012,06,24,02,07,9.30
2012,06,24,02,08,9.30
2012,06,24,02,09,9.30
2012,06,24,02,10,9.30
2012,06,24,02,11,9.30
2012,06,24,02,12,9.30
2012,06,24,02,13,9.30
2012,06,24,02,14,9.30
2012,06,24,02,15,9.30
2012,06,24,02,16,9.30
2012,06,24,02,17,9.30
2012,06,24,02,18,9.30
2012,06,24,02,19,9.30
2012,06,24,02,20,9.30
2012,06,24,02,21,9.30
2012,06,24,02,22,9.30
2012,06,24,02,23,9.30
2012,06,24,02,24,9.30
2012,06,24,02,25,9.30
2012,06,24,02,26,9.30
2012,06,24,02,27,9.30
2012,06,24,02,28,9.30
2012,06,24,02,29,9.30
2012,06,24,02,30,9.40
2012,06,24,02,31,9.40
2012,06,24,02,32,9.40
2012,06,24,02,33,9.40
2012,06,24,02,34,9.40
2012,06,24,02,35,9.40
2012,06,24,02,36,9.40
2012,06,24,02,37,9.40
2012,06,24,02,38,9.40
2012,06,24,02,39,9.50
2012,06,24,02,40,9.50
2012,06,24,02,41,9.50
2012,06,24,02,42,9.50
2012,06,24,02,43,9.50
2012,06,24,02,44,9.40
2012,06,24,02,45,9.40
2012,06,24,02,46,9.40
2012,06,24,02,47,9.30
2012,06,24,02,48,9.30
2012,06,24,02,49,9.30
2012,06,24,02,50,9.30
2012,06,24,02,51,9.30
2012,06,24,02,52,9.30
2012,06,24,02,53,9.20
2012,06,24,02,54,9.20
2012,06,24,02,55,9.20
2012,06,24,02,56,9.20
2012,06,24,02,57,9.20
2012,06,24,02,58,9.20
2012,06,24,02,59,9.10
2012,06,24,03,00,9.20
2012,06,24,03,01,9.10
2012,06,24,03,02,9.10
2012,06,24,03,03,9.10
2012,06,24,03,06,9.10
2012,06,24,03,07,9.00
2012,06,24,03,08,9.00
2012,06,24,03,09,9.00
2012,06,24,03,10,9.00
2012,06,24,03,11,9.00
2012,06,24,03,12,9.00
2012,06,24,03,13,9.00
2012,06,24,03,14,9.00
2012,06,24,03,15,9.00
2012,06,24,03,16,9.00
2012,06,24,03,17,8.90
2012,06,24,03,18,8.90
2012,06,24,03,19,8.90
2012,06,24,03,20,8.90
2012,06,24,03,21,8.90
2012,06,24,03,22,8.80
2012,06,24,03,23,8.80
2012,06,24,03,24,8.80
2012,06,24,03,25,8.70
2012,06,24,03,26,8.70
2012,06,24,03,27,8.70
2012,06,24,03,28,8.60
2012,06,24,03,29,8.60
2012,06,24,03,30,8.60
2012,06,24,03,31,8.60
2012,06,24,03,32,8.50
2012,06,24,03,33,8.50
2012,06,24,03,34,8.40
2012,06,24,03,35,8.40
2012,06,24,03,36,8.40
2012,06,24,03,37,8.30
2012,06,24,03,38,8.30
2012,06,24,03,39,8.20
2012,06,24,03,40,8.20
2012,06,24,03,41,8.20
2012,06,24,03,42,8.20
2012,06,24,03,43,8.10
2012,06,24,03,44,8.10
2012,06,24,03,45,8.10
2012,06,24,03,46,8.10
2012,06,24,03,47,8.10
2012,06,24,03,48,8.10
2012,06,24,03,49,8.10
2012,06,24,03,50,8.10
2012,06,24,03,51,8.10
2012,06,24,03,52,8.10
2012,06,24,03,53,8.10
2012,06,24,03,54,8.10
2012,06,24,03,55,8.10
2012,06,24,03,56,8.10
2012,06,24,03,57,8.10
2012,06,24,03,58,8.10
2012,06,24,03,59,8.10
2012,06,24,04,00,8.10
2012,06,24,04,01,8.10
2012,06,24,04,02,8.10
2012,06,24,04,03,8.00
2012,06,24,04,04,8.00
2012,06,24,04,05,7.90
2012,06,24,04,06,7.90
2012,06,24,04,07,7.80
2012,06,24,04,08,7.80
2012,06,24,04,09,7.80
2012,06,24,04,10,7.80
2012,06,24,04,11,7.80
2012,06,24,04,12,7.80
2012,06,24,04,13,7.70
2012,06,24,04,14,7.70
2012,06,24,04,15,7.70
2012,06,24,04,16,7.60
2012,06,24,04,17,7.60
2012,06,24,04,18,7.60
2012,06,24,04,19,7.60
2012,06,24,04,20,7.50
2012,06,24,04,21,7.50
2012,06,24,04,22,7.50
2012,06,24,04,23,7.50
2012,06,24,04,24,7.50
2012,06,24,04,25,7.50
2012,06,24,04,26,7.50
2012,06,24,04,27,7.60
2012,06,24,04,28,7.60
2012,06,24,04,29,7.60
2012,06,24,04,30,7.60
2012,06,24,04,31,7.60
2012,06,24,04,32,7.60
2012,06,24,04,33,7.60
2012,06,24,04,34,7.60
2012,06,24,04,35,7.60
2012,06,24,04,36,7.60
2012,06,24,04,37,7.70
2012,06,24,04,38,7.70
2012,06,24,04,39,7.70
2012,06,24,04,40,7.60
2012,06,24,04,41,7.60
2012,06,24,04,42,7.60
2012,06,24,04,43,7.50
2012,06,24,04,44,7.50
2012,06,24,04,45,7.50
2012,06,24,04,46,7.40
2012,06,24,04,47,7.40
2012,06,24,04,48,7.40
2012,06,24,04,49,7.40
2012,06,24,04,50,7.40
2012,06,24,04,51,7.40
2012,06,24,04,52,7.40
2012,06,24,04,53,7.40
2012,06,24,04,54,7.40
2012,06,24,04,55,7.40
2012,06,24,04,56,7.30
2012,06,24,04,57,7.30
2012,06,24,04,58,7.30
2012,06,24,04,59,7.30
2012,06,24,05,00,7.30
2012,06,24,05,01,7.20
2012,06,24,05,02,7.20
2012,06,24,05,03,7.20
2012,06,24,05,04,7.20
2012,06,24,05,05,7.20
2012,06,24,05,06,7.20
2012,06,24,05,07,7.20
2012,06,24,05,08,7.20
2012,06,24,05,09,7.20
2012,06,24,05,10,7.20
2012,06,24,05,11,7.20
2012,06,24,05,12,7.20
2012,06,24,05,13,7.20
2012,06,24,05,14,7.20
2012,06,24,05,15,7.20
2012,06,24,05,16,7.20
2012,06,24,05,17,7.20
2012,06,24,05,18,7.10
2012,06,24,05,19,7.10
2012,06,24,05,20,7.10
2012,06,24,05,21,7.00
2012,06,24,05,22,7.00
2012,06,24,05,23,6.90
2012,06,24,05,24,6.90
2012,06,24,05,25,6.90
2012,06,24,05,26,6.90
2012,06,24,05,27,6.90
2012,06,24,05,28,6.90
2012,06,24,05,29,6.90
2012,06,24,05,30,6.90
2012,06,24,05,31,6.90
2012,06,24,05,32,6.90
2012,06,24,05,33,6.90
2012,06,24,05,34,6.90
2012,06,24,05,35,6.90
2012,06,24,05,36,6.90
2012,06,24,05,37,6.80
2012,06,24,05,38,6.80
2012,06,24,05,39,6.80
2012,06,24,05,40,6.90
2012,06,24,05,41,6.90
2012,06,24,05,42,6.90
2012,06,24,05,43,6.90
2012,06,24,05,44,6.90
2012,06,24,05,45,6.90
2012,06,24,05,46,6.90
2012,06,24,05,47,6.90
2012,06,24,05,48,6.90
2012,06,24,05,49,6.90
2012,06,24,05,50,6.90
2012,06,24,05,51,7.00
2012,06,24,05,52,7.00
2012,06,24,05,53,7.00
2012,06,24,05,54,7.10
2012,06,24,05,55,7.10
2012,06,24,05,56,7.20
2012,06,24,05,57,7.20
2012,06,24,05,58,7.20
2012,06,24,05,59,7.20
2012,06,24,06,00,7.30
2012,06,24,06,01,7.30
2012,06,24,06,02,7.30
2012,06,24,06,03,7.30
2012,06,24,06,04,7.30
2012,06,24,06,05,7.30
2012,06,24,06,06,7.30
2012,06,24,06,07,7.30
2012,06,24,06,08,7.30
2012,06,24,06,09,7.30
2012,06,24,06,10,7.30
2012,06,24,06,11,7.30
2012,06,24,06,12,7.30
2012,06,24,06,13,7.40
2012,06,24,06,14,7.40
2012,06,24,06,15,7.40
2012,06,24,06,16,7.40
2012,06,24,06,17,7.50
2012,06,24,06,18,7.50
2012,06,24,06,19,7.60
2012,06,24,06,20,7.60
2012,06,24,06,21,7.60
2012,06,24,06,22,7.70
2012,06,24,06,23,7.70
2012,06,24,06,24,7.70
2012,06,24,06,25,7.70
2012,06,24,06,26,7.70
2012,06,24,06,27,7.70
2012,06,24,06,28,7.80
2012,06,24,06,29,7.80
2012,06,24,06,30,7.80
2012,06,24,06,31,7.80
2012,06,24,06,32,7.90
2012,06,24,06,33,7.90
2012,06,24,06,34,8.00
2012,06,24,06,35,8.10
2012,06,24,06,36,8.10
2012,06,24,06,37,8.20
2012,06,24,06,38,8.20
2012,06,24,06,39,8.20
2012,06,24,06,40,8.30
2012,06,24,06,41,8.30
2012,06,24,06,42,8.30
2012,06,24,06,43,8.30
2012,06,24,06,44,8.40
2012,06,24,06,45,8.40
2012,06,24,06,46,8.50
2012,06,24,06,47,8.50
2012,06,24,06,48,8.50
2012,06,24,06,49,8.60
2012,06,24,06,50,8.60
2012,06,24,06,51,8.60
2012,06,24,06,52,8.60
2012,06,24,06,53,8.60
2012,06,24,06,54,8.60
2012,06,24,06,55,8.60
2012,06,24,06,56,8.60
2012,06,24,06,57,8.70
2012,06,24,06,58,8.70
2012,06,24,06,59,8.80
2012,06,24,07,00,8.80
2012,06,24,07,01,8.80
2012,06,24,07,02,8.90
2012,06,24,07,03,8.90
2012,06,24,07,04,8.90
2012,06,24,07,05,9.00
2012,06,24,07,06,9.00
2012,06,24,07,07,9.10
2012,06,24,07,08,9.10
2012,06,24,07,09,9.20
2012,06,24,07,10,9.20
2012,06,24,07,11,9.30
2012,06,24,07,12,9.40
2012,06,24,07,13,9.40
2012,06,24,07,14,9.50
2012,06,24,07,15,9.60
2012,06,24,07,16,9.70
2012,06,24,07,17,9.80
2012,06,24,07,18,9.90
2012,06,24,07,19,9.90
2012,06,24,07,20,9.90
2012,06,24,07,21,9.90
2012,06,24,07,22,10.00
2012,06,24,07,23,10.00
2012,06,24,07,24,10.10
2012,06,24,07,25,10.20
2012,06,24,07,26,10.20
2012,06,24,07,27,10.30
2012,06,24,07,28,10.30
2012,06,24,07,29,10.30
2012,06,24,07,30,10.40
2012,06,24,07,31,10.50
2012,06,24,07,32,10.50
2012,06,24,07,33,10.60
2012,06,24,07,34,10.60
2012,06,24,07,35,10.70
2012,06,24,07,36,10.70
2012,06,24,07,37,10.70
2012,06,24,07,38,10.70
2012,06,24,07,39,10.60
2012,06,24,07,40,10.60
2012,06,24,07,41,10.60
2012,06,24,07,42,10.60
2012,06,24,07,43,10.60
2012,06,24,07,44,10.60
2012,06,24,07,45,10.60
2012,06,24,07,46,10.70
2012,06,24,07,47,10.70
2012,06,24,07,48,10.70
2012,06,24,07,49,10.70
2012,06,24,07,50,10.70
2012,06,24,07,51,10.70
2012,06,24,07,52,10.70
2012,06,24,07,53,10.70
2012,06,24,07,54,10.70
2012,06,24,07,55,10.70
2012,06,24,07,56,10.70
2012,06,24,07,57,10.70
2012,06,24,07,58,10.70
2012,06,24,07,59,10.70
2012,06,24,08,00,10.70
2012,06,24,08,01,10.70
2012,06,24,08,02,10.70
2012,06,24,08,03,10.70
2012,06,24,08,04,10.70
2012,06,24,08,05,10.70
2012,06,24,08,06,10.70
2012,06,24,08,07,10.70
2012,06,24,08,08,10.70
2012,06,24,08,09,10.70
2012,06,24,08,10,10.70
2012,06,24,08,11,10.70
2012,06,24,08,12,10.70
2012,06,24,08,13,10.70
2012,06,24,08,14,10.70
2012,06,24,08,15,10.80
2012,06,24,08,16,10.80
2012,06,24,08,17,10.90
2012,06,24,08,18,10.90
2012,06,24,08,19,10.90
2012,06,24,08,20,10.90
2012,06,24,08,21,10.90
2012,06,24,08,22,10.90
2012,06,24,08,23,10.90
2012,06,24,08,24,10.90
2012,06,24,08,25,10.90
2012,06,24,08,26,11.00
2012,06,24,08,27,11.00
2012,06,24,08,28,11.00
2012,06,24,08,29,10.90
2012,06,24,08,30,10.90
2012,06,24,08,31,11.00
2012,06,24,08,32,11.00
2012,06,24,08,33,11.00
2012,06,24,08,34,11.10
2012,06,24,08,35,11.10
2012,06,24,08,36,11.10
2012,06,24,08,37,11.10
2012,06,24,08,38,11.10
2012,06,24,08,39,11.20
2012,06,24,08,40,11.20
2012,06,24,08,41,11.20
2012,06,24,08,42,11.30
2012,06,24,08,43,11.30
2012,06,24,08,44,11.30
2012,06,24,08,45,11.30
2012,06,24,08,46,11.40
2012,06,24,08,47,11.40
2012,06,24,08,48,11.40
2012,06,24,08,49,11.40
2012,06,24,08,50,11.50
2012,06,24,08,51,11.50
2012,06,24,08,52,11.60
2012,06,24,08,53,11.60
2012,06,24,08,54,11.60
2012,06,24,08,55,11.60
2012,06,24,08,56,11.70
2012,06,24,08,57,11.70
2012,06,24,08,58,11.70
2012,06,24,08,59,11.80
2012,06,24,09,00,11.90
2012,06,24,09,01,11.90
2012,06,24,09,02,12.00
2012,06,24,09,03,12.00
2012,06,24,09,04,12.10
2012,06,24,09,05,12.20
2012,06,24,09,06,12.30
2012,06,24,09,07,12.30
2012,06,24,09,08,12.40
2012,06,24,09,09,12.50
2012,06,24,09,10,12.60
2012,06,24,09,11,12.70
2012,06,24,09,12,12.80
2012,06,24,09,13,12.90
2012,06,24,09,14,12.90
2012,06,24,09,15,12.90
2012,06,24,09,16,13.00
2012,06,24,09,17,13.00
2012,06,24,09,18,13.10
2012,06,24,09,19,13.10
2012,06,24,09,20,13.10
2012,06,24,09,21,13.10
2012,06,24,09,22,13.10
2012,06,24,09,23,13.10
2012,06,24,09,24,13.10
2012,06,24,09,25,13.10
2012,06,24,09,26,13.20
2012,06,24,09,27,13.20
2012,06,24,09,28,13.20
2012,06,24,09,29,13.30
2012,06,24,09,30,13.30
2012,06,24,09,31,13.30
2012,06,24,09,32,13.40
2012,06,24,09,33,13.40
2012,06,24,09,34,13.50
2012,06,24,09,35,13.50
2012,06,24,09,36,13.60
2012,06,24,09,37,13.70
2012,06,24,09,38,13.80
2012,06,24,09,39,13.80
2012,06,24,09,40,13.90
2012,06,24,09,41,14.00
2012,06,24,09,42,14.00
2012,06,24,09,43,14.10
2012,06,24,09,44,14.20
2012,06,24,09,45,14.20
2012,06,24,09,46,14.30
2012,06,24,09,47,14.40
2012,06,24,09,48,14.40
2012,06,24,09,49,14.50
2012,06,24,09,50,14.60
2012,06,24,09,51,14.60
2012,06,24,09,52,14.70
2012,06,24,09,53,14.70
2012,06,24,09,54,14.70
2012,06,24,09,55,14.80
2012,06,24,09,56,14.80
2012,06,24,09,57,14.90
2012,06,24,09,58,15.00
2012,06,24,09,59,15.00
2012,06,24,10,00,15.10
2012,06,24,10,01,15.20
2012,06,24,10,02,15.20
2012,06,24,10,03,15.30
2012,06,24,10,04,15.40
2012,06,24,10,05,15.40
2012,06,24,10,06,15.40
2012,06,24,10,07,15.40
2012,06,24,10,08,15.30
2012,06,24,10,09,15.20
2012,06,24,10,10,15.10
2012,06,24,10,11,15.00
2012,06,24,10,12,15.00
2012,06,24,10,13,15.00
2012,06,24,10,14,15.00
2012,06,24,10,15,15.10
2012,06,24,10,16,15.20
2012,06,24,10,17,15.20
2012,06,24,10,18,15.30
2012,06,24,10,19,15.50
2012,06,24,10,20,15.60
2012,06,24,10,21,15.70
2012,06,24,10,22,15.80
2012,06,24,10,23,15.90
2012,06,24,10,24,16.00
2012,06,24,10,25,16.10
2012,06,24,10,26,16.10
2012,06,24,10,27,16.20
2012,06,24,10,28,16.20
2012,06,24,10,29,16.30
2012,06,24,10,30,16.40
2012,06,24,10,31,16.50
2012,06,24,10,32,16.60
2012,06,24,10,33,16.70
2012,06,24,10,34,16.80
2012,06,24,10,35,16.80
2012,06,24,10,36,16.90
2012,06,24,10,37,16.90
2012,06,24,10,38,16.90
2012,06,24,10,39,17.00
2012,06,24,10,40,17.00
2012,06,24,10,41,17.10
2012,06,24,10,42,17.10
2012,06,24,10,43,17.10
2012,06,24,10,44,17.10
2012,06,24,10,45,17.20
2012,06,24,10,46,17.20
2012,06,24,10,47,17.20
2012,06,24,10,48,17.30
2012,06,24,10,49,17.30
2012,06,24,10,50,17.40
2012,06,24,10,51,17.40
2012,06,24,10,52,17.50
2012,06,24,10,53,17.50
2012,06,24,10,54,17.60
2012,06,24,10,55,17.70
2012,06,24,10,56,17.70
2012,06,24,10,57,17.80
2012,06,24,10,58,17.80
2012,06,24,10,59,17.80
2012,06,24,11,00,17.80
2012,06,24,11,01,17.80
2012,06,24,11,02,17.80
2012,06,24,11,03,17.80
2012,06,24,11,04,17.70
2012,06,24,11,05,17.70
2012,06,24,11,06,17.60
2012,06,24,11,07,17.60
2012,06,24,11,08,17.50
2012,06,24,11,09,17.50
2012,06,24,11,10,17.50
2012,06,24,11,11,17.40
2012,06,24,11,12,17.40
2012,06,24,11,13,17.30
2012,06,24,11,14,17.30
2012,06,24,11,15,17.20
2012,06,24,11,16,17.20
2012,06,24,11,17,17.20
2012,06,24,11,18,17.20
2012,06,24,11,19,17.20
2012,06,24,11,20,17.20
2012,06,24,11,21,17.30
2012,06,24,11,22,17.30
2012,06,24,11,23,17.30
2012,06,24,11,24,17.40
2012,06,24,11,25,17.40
2012,06,24,11,26,17.40
2012,06,24,11,27,17.50
2012,06,24,11,28,17.50
2012,06,24,11,29,17.50
2012,06,24,11,30,17.40
2012,06,24,11,31,17.50
2012,06,24,11,32,17.60
2012,06,24,11,33,17.70
2012,06,24,11,34,17.60
2012,06,24,11,35,17.50
2012,06,24,11,36,17.50
2012,06,24,11,37,17.60
2012,06,24,11,38,17.60
2012,06,24,11,39,17.60
2012,06,24,11,40,17.60
2012,06,24,11,41,17.60
2012,06,24,11,42,17.50
2012,06,24,11,43,17.40
2012,06,24,11,44,17.40
2012,06,24,11,45,17.30
2012,06,24,11,46,17.30
2012,06,24,11,47,17.30
2012,06,24,11,48,17.30
2012,06,24,11,49,17.30
2012,06,24,11,50,17.40
2012,06,24,11,51,17.60
2012,06,24,11,52,17.60
2012,06,24,11,53,17.60
2012,06,24,11,54,17.60
2012,06,24,11,55,17.70
2012,06,24,11,56,17.70
2012,06,24,11,57,17.70
2012,06,24,11,58,17.80
2012,06,24,11,59,17.90
2012,06,24,12,00,17.90
2012,06,24,12,01,17.90
2012,06,24,12,02,17.90
2012,06,24,12,03,18.00
2012,06,24,12,04,18.00
2012,06,24,12,05,18.10
2012,06,24,12,06,18.10
2012,06,24,12,07,18.20
2012,06,24,12,08,18.20
2012,06,24,12,09,18.10
2012,06,24,12,10,18.00
2012,06,24,12,11,17.90
2012,06,24,12,12,17.90
2012,06,24,12,13,17.90
2012,06,24,12,14,17.90
2012,06,24,12,15,18.00
2012,06,24,12,16,18.00
2012,06,24,12,17,18.10
2012,06,24,12,18,18.10
2012,06,24,12,19,18.10
2012,06,24,12,20,18.20
2012,06,24,12,21,18.30
2012,06,24,12,22,18.30
2012,06,24,12,23,18.40
2012,06,24,12,24,18.40
2012,06,24,12,25,18.60
2012,06,24,12,26,18.60
2012,06,24,12,27,18.60
2012,06,24,12,28,18.60
2012,06,24,12,29,18.60
2012,06,24,12,30,18.60
2012,06,24,12,31,18.70
2012,06,24,12,32,18.80
2012,06,24,12,33,18.90
2012,06,24,12,34,19.00
2012,06,24,12,35,19.10
2012,06,24,12,36,19.10
2012,06,24,12,37,19.10
2012,06,24,12,38,19.10
2012,06,24,12,39,19.10
2012,06,24,12,40,19.10
2012,06,24,12,41,19.20
2012,06,24,12,42,19.20
2012,06,24,12,43,19.30
2012,06,24,12,44,19.30
2012,06,24,12,45,19.30
2012,06,24,12,46,19.30
2012,06,24,12,47,19.30
2012,06,24,12,48,19.30
2012,06,24,12,49,19.20
2012,06,24,12,50,19.10
2012,06,24,12,51,19.00
2012,06,24,12,52,18.90
2012,06,24,12,53,18.80
2012,06,24,12,54,18.60
2012,06,24,12,55,18.50
2012,06,24,12,56,18.60
2012,06,24,12,57,18.60
2012,06,24,12,58,18.70
2012,06,24,12,59,18.80
2012,06,24,13,00,18.80
2012,06,24,13,01,18.90
2012,06,24,13,02,18.90
2012,06,24,13,03,18.90
2012,06,24,13,04,18.90
2012,06,24,13,05,19.00
2012,06,24,13,06,19.10
2012,06,24,13,07,19.20
2012,06,24,13,08,19.20
2012,06,24,13,09,19.20
2012,06,24,13,10,19.00
2012,06,24,13,11,18.80
2012,06,24,13,12,18.70
2012,06,24,13,13,18.60
2012,06,24,13,14,18.50
2012,06,24,13,15,18.50
2012,06,24,13,16,18.40
2012,06,24,13,17,18.40
2012,06,24,13,18,18.30
2012,06,24,13,19,18.30
2012,06,24,13,20,18.30
2012,06,24,13,21,18.40
2012,06,24,13,22,18.30
2012,06,24,13,23,18.30
2012,06,24,13,24,18.40
2012,06,24,13,25,18.40
2012,06,24,13,26,18.40
2012,06,24,13,27,18.40
2012,06,24,13,28,18.40
2012,06,24,13,29,18.30
2012,06,24,13,30,18.30
2012,06,24,13,31,18.20
2012,06,24,13,32,18.10
2012,06,24,13,33,18.00
2012,06,24,13,34,17.90
2012,06,24,13,35,18.00
2012,06,24,13,36,18.10
2012,06,24,13,37,18.10
2012,06,24,13,38,18.10
2012,06,24,13,39,18.20
2012,06,24,13,40,18.30
2012,06,24,13,41,18.30
2012,06,24,13,42,18.30
2012,06,24,13,43,18.40
2012,06,24,13,44,18.30
2012,06,24,13,45,18.30
2012,06,24,13,46,18.30
2012,06,24,13,47,18.30
2012,06,24,13,48,18.40
2012,06,24,13,49,18.40
2012,06,24,13,50,18.50
2012,06,24,13,51,18.60
2012,06,24,13,52,18.60
2012,06,24,13,53,18.70
2012,06,24,13,54,18.70
2012,06,24,13,55,18.70
2012,06,24,13,56,18.60
2012,06,24,13,57,18.50
2012,06,24,13,58,18.40
2012,06,24,13,59,18.40
2012,06,24,14,00,18.40
2012,06,24,14,01,18.40
2012,06,24,14,02,18.40
2012,06,24,14,03,18.40
2012,06,24,14,04,18.40
2012,06,24,14,05,18.50
2012,06,24,14,06,18.60
2012,06,24,14,07,18.80
2012,06,24,14,08,18.80
2012,06,24,14,09,18.80
2012,06,24,14,10,18.80
2012,06,24,14,11,18.70
2012,06,24,14,12,18.70
2012,06,24,14,13,18.70
2012,06,24,14,14,18.70
2012,06,24,14,15,18.80
2012,06,24,14,16,18.80
2012,06,24,14,17,18.70
2012,06,24,14,18,18.50
2012,06,24,14,19,18.40
2012,06,24,14,20,18.40
2012,06,24,14,21,18.40
2012,06,24,14,22,18.50
2012,06,24,14,23,18.50
2012,06,24,14,24,18.50
2012,06,24,14,25,18.60
2012,06,24,14,26,18.60
2012,06,24,14,27,18.60
2012,06,24,14,28,18.60
2012,06,24,14,29,18.70
2012,06,24,14,30,18.80
2012,06,24,14,31,18.80
2012,06,24,14,32,18.80
2012,06,24,14,33,18.70
2012,06,24,14,34,18.70
2012,06,24,14,35,18.60
2012,06,24,14,36,18.50
2012,06,24,14,37,18.50
2012,06,24,14,38,18.50
2012,06,24,14,39,18.60
2012,06,24,14,40,18.60
2012,06,24,14,41,18.70
2012,06,24,14,42,18.80
2012,06,24,14,43,18.80
2012,06,24,14,44,18.80
2012,06,24,14,45,18.80
2012,06,24,14,46,18.70
2012,06,24,14,47,18.70
2012,06,24,14,48,18.60
2012,06,24,14,49,18.50
2012,06,24,14,50,18.50
2012,06,24,14,51,18.40
2012,06,24,14,52,18.40
2012,06,24,14,53,18.40
2012,06,24,14,54,18.40
2012,06,24,14,55,18.40
2012,06,24,14,56,18.40
2012,06,24,14,57,18.40
2012,06,24,14,58,18.40
2012,06,24,14,59,18.50
2012,06,24,15,00,18.50
2012,06,24,15,01,18.60
2012,06,24,15,02,18.70
2012,06,24,15,03,18.70
2012,06,24,15,04,18.70
2012,06,24,15,05,18.70
2012,06,24,15,06,18.70
2012,06,24,15,07,18.70
2012,06,24,15,08,18.70
2012,06,24,15,09,18.80
2012,06,24,15,10,18.90
2012,06,24,15,11,19.00
2012,06,24,15,12,19.00
2012,06,24,15,13,19.10
2012,06,24,15,14,19.20
2012,06,24,15,15,19.20
2012,06,24,15,16,19.20
2012,06,24,15,17,19.10
2012,06,24,15,18,19.00
2012,06,24,15,19,19.00
2012,06,24,15,20,19.10
2012,06,24,15,21,19.20
2012,06,24,15,22,19.30
2012,06,24,15,23,19.30
2012,06,24,15,24,19.30
2012,06,24,15,25,19.20
2012,06,24,15,26,19.20
2012,06,24,15,27,19.20
2012,06,24,15,28,19.20
2012,06,24,15,29,19.30
2012,06,24,15,30,19.30
2012,06,24,15,31,19.20
2012,06,24,15,32,19.20
2012,06,24,15,33,19.30
2012,06,24,15,34,19.30
2012,06,24,15,35,19.30
2012,06,24,15,36,19.30
2012,06,24,15,37,19.20
2012,06,24,15,38,19.20
2012,06,24,15,39,19.20
2012,06,24,15,40,19.20
2012,06,24,15,41,19.20
2012,06,24,15,42,19.20
2012,06,24,15,43,19.20
2012,06,24,15,44,19.20
2012,06,24,15,45,19.30
2012,06,24,15,46,19.30
2012,06,24,15,47,19.30
2012,06,24,15,48,19.40
2012,06,24,15,49,19.40
2012,06,24,15,50,19.40
2012,06,24,15,51,19.40
2012,06,24,15,52,19.40
2012,06,24,15,53,19.30
2012,06,24,15,54,19.30
2012,06,24,15,55,19.30
2012,06,24,15,56,19.30
2012,06,24,15,57,19.30
2012,06,24,15,58,19.30
2012,06,24,15,59,19.30
2012,06,24,16,00,19.30
2012,06,24,16,01,19.30
2012,06,24,16,02,19.40
2012,06,24,16,03,19.40
2012,06,24,16,04,19.30
2012,06,24,16,05,19.30
2012,06,24,16,06,19.30
2012,06,24,16,07,19.40
2012,06,24,16,08,19.50
2012,06,24,16,09,19.50
2012,06,24,16,10,19.50
2012,06,24,16,11,19.50
2012,06,24,16,12,19.50
2012,06,24,16,13,19.60
2012,06,24,16,14,19.60
2012,06,24,16,15,19.50
2012,06,24,16,16,19.50
2012,06,24,16,17,19.40
2012,06,24,16,18,19.30
2012,06,24,16,19,19.20
2012,06,24,16,20,19.10
2012,06,24,16,21,19.00
2012,06,24,16,22,19.00
2012,06,24,16,23,19.00
2012,06,24,16,24,19.10
2012,06,24,16,25,19.20
2012,06,24,16,26,19.30
2012,06,24,16,27,19.30
2012,06,24,16,28,19.40
2012,06,24,16,29,19.40
2012,06,24,16,30,19.40
2012,06,24,16,31,19.40
2012,06,24,16,32,19.40
2012,06,24,16,33,19.50
2012,06,24,16,34,19.50
2012,06,24,16,35,19.40
2012,06,24,16,36,19.40
2012,06,24,16,37,19.40
2012,06,24,16,38,19.40
2012,06,24,16,39,19.40
2012,06,24,16,40,19.50
2012,06,24,16,41,19.50
2012,06,24,16,42,19.50
2012,06,24,16,43,19.50
2012,06,24,16,44,19.60
2012,06,24,16,45,19.50
2012,06,24,16,46,19.50
2012,06,24,16,47,19.60
2012,06,24,16,48,19.50
2012,06,24,16,49,19.50
2012,06,24,16,50,19.50
2012,06,24,16,51,19.50
2012,06,24,16,52,19.50
2012,06,24,16,53,19.60
2012,06,24,16,54,19.50
2012,06,24,16,55,19.50
2012,06,24,16,56,19.50
2012,06,24,16,57,19.50
2012,06,24,16,58,19.30
2012,06,24,16,59,19.30
2012,06,24,17,00,19.40
2012,06,24,17,01,19.40
2012,06,24,17,02,19.50
2012,06,24,17,03,19.40
2012,06,24,17,04,19.50
2012,06,24,17,05,19.60
2012,06,24,17,06,19.60
2012,06,24,17,07,19.60
2012,06,24,17,08,19.50
2012,06,24,17,09,19.50
2012,06,24,17,10,19.40
2012,06,24,17,11,19.50
2012,06,24,17,12,19.50
2012,06,24,17,13,19.50
2012,06,24,17,14,19.40
2012,06,24,17,15,19.40
2012,06,24,17,16,19.40
2012,06,24,17,17,19.40
2012,06,24,17,18,19.40
2012,06,24,17,19,19.40
2012,06,24,17,20,19.30
2012,06,24,17,21,19.30
2012,06,24,17,22,19.20
2012,06,24,17,23,19.20
2012,06,24,17,24,19.10
2012,06,24,17,25,19.00
2012,06,24,17,26,19.00
2012,06,24,17,27,19.10
2012,06,24,17,28,19.00
2012,06,24,17,29,19.00
2012,06,24,17,30,18.90
2012,06,24,17,31,18.90
2012,06,24,17,32,18.90
2012,06,24,17,33,18.80
2012,06,24,17,34,18.80
2012,06,24,17,35,18.70
2012,06,24,17,36,18.60
2012,06,24,17,37,18.50
2012,06,24,17,38,18.50
2012,06,24,17,39,18.40